Wind_Speed
15 15 15 16 16 16 15 15 15 15 15 15 16 16 17 17 19 20 20 22 23 24 25 26 28 30 31 33 34 35 36 37 37 38 38 38 38 38 38 38 38 37 37
19 19 19 19 19 20 19 20 20 20 20 20 20 21 21 21 22 23 23 25 26 27 28 30 31 33 34 36 37 38 40 40 41 42 42 43 43 43 43 43 43 43 43
23 24 24 24 24 25 25 25 25 25 25 25 25 25 25 25 24 25 27 28 29 30 32 33 34 35 36 38 40 41 43 44 44 45 45 46 46 46 46 46 46 46 46
29 30 30 30 31 31 30 30 29 29 29 29 28 28 27 26 26 27 28 30 31 33 33 35 36 37 38 40 41 43 44 45 46 47 48 48 49 49 49 48 48 48 48
34 35 36 36 36 35 35 34 32 31 31 31 30 28 27 27 26 28 30 31 33 35 36 37 38 39 40 42 43 45 46 47 48 49 50 51 52 52 53 53 52 51 51
38 39 39 39 39 38 37 35 33 32 32 31 29 27 28 27 28 30 31 32 34 36 39 40 42 42 44 45 47 48 50 51 52 53 54 55 56 57 57 57 57 56 56
38 38 38 39 39 38 37 36 33 31 30 29 28 28 28 29 30 31 33 35 37 39 41 43 46 47 49 50 52 53 55 56 57 58 59 59 60 61 61 61 61 61 60
36 36 35 33 33 34 34 32 30 28 27 26 27 29 30 31 31 34 36 39 41 43 46 48 50 53 54 56 58 58 59 60 61 62 63 64 64 64 64 64 63 63 62
33 31 30 30 29 28 28 27 26 25 26 27 28 31 33 35 37 38 41 44 46 49 51 54 56 58 59 61 62 63 63 64 65 65 66 67 66 66 65 65 65 65 64
29 29 28 28 27 27 26 25 23 25 27 29 32 35 38 41 44 47 48 49 51 54 57 59 61 62 63 64 65 66 66 66 67 67 68 68 68 68 67 67 67 67 67
29 26 26 26 26 26 26 26 27 29 32 34 36 39 42 45 48 51 55 57 58 60 62 63 65 66 66 67 67 68 67 67 68 68 69 69 69 69 69 69 69 69 69
29 26 26 27 27 28 29 29 31 35 37 39 42 45 47 50 52 55 58 60 62 63 65 66 67 67 68 69 69 68 68 68 68 68 68 69 69 69 69 69 69 69 69
32 31 31 30 30 32 33 34 36 40 43 45 48 50 53 55 57 59 61 63 64 64 66 66 67 67 68 69 69 68 67 67 67 67 67 67 67 67 67 67 68 68 69
35 33 33 35 35 36 38 40 42 45 47 50 53 55 57 59 61 62 64 64 65 64 65 66 66 66 66 67 68 67 67 66 66 66 66 67 67 68 68 68 68 68 68
37 36 37 38 39 41 43 44 46 49 52 55 57 59 60 62 63 64 64 64 65 64 63 64 65 65 66 67 68 68 67 67 66 66 66 65 65 65 65 65 65 65 65
39 39 40 42 43 45 46 49 52 54 56 58 59 61 62 63 63 63 63 63 64 63 62 63 65 66 67 67 67 67 66 64 63 61 60 59 59 58 57 57 57 58 59
43 43 44 45 47 49 51 53 55 57 58 59 61 61 62 61 61 61 61 62 62 63 63 63 65 65 65 64 63 61 59 56 54 52 50 49 47 47 47 47 47 48 49
47 47 48 49 51 53 54 56 57 58 59 60 60 60 60 59 59 59 60 61 62 63 63 62 61 60 59 57 54 51 48 45 42 40 38 37 36 35 36 36 36 37 39
51 51 52 53 53 54 56 57 58 58 59 59 58 58 57 57 57 58 59 61 61 61 60 58 54 52 49 46 43 40 37 34 32 31 29 29 29 29 29 29 30 31 32
53 53 53 54 55 55 56 57 57 57 57 56 55 55 55 55 56 57 58 59 58 56 52 49 45 42 39 37 34 31 29 28 28 27 26 25 26 26 26 26 26 27 28
54 55 55 55 55 55 56 56 55 55 54 53 53 53 54 55 56 56 55 54 51 47 43 39 35 33 32 30 29 28 27 26 26 26 26 25 25 25 25 25 25 25 26
55 54 54 54 54 54 54 54 53 52 52 51 51 52 53 54 53 52 50 46 42 38 33 30 29 28 28 28 28 28 28 27 26 26 26 26 26 25 25 24 24 24 24
53 53 53 53 53 52 52 51 51 50 50 50 51 51 51 50 48 45 41 38 34 30 28 27 27 27 27 27 27 27 27 26 26 25 25 25 25 25 25 24 24 23 22
52 52 52 52 52 51 50 50 49 49 49 49 49 48 46 43 39 35 33 30 28 27 28 28 28 28 28 27 26 25 24 23 23 22 22 22 22 22 22 22 22 21 21
51 51 51 50 50 49 48 48 48 48 47 46 45 42 38 34 30 27 25 24 25 26 27 28 28 27 26 24 22 21 20 19 19 19 18 18 18 18 18 18 18 18 19
49 49 49 48 48 47 47 47 46 45 43 41 38 35 31 26 23 20 20 21 23 25 26 26 25 23 21 20 19 18 16 16 16 16 17 17 16 16 15 15 14 15 15
Wind_Direction
285 279 274 273 272 271 268 267 268 269 271 274 277 280 283 285 287 288 289 289 288 287 287 287 286 285 283 282 281 280 279 278 277 276 274 273 272 270 268 267 265 264 261
283 277 272 269 267 267 267 268 268 269 270 271 273 275 277 279 282 283 286 287 287 287 286 286 285 284 282 281 279 278 278 277 276 275 274 272 271 269 267 266 265 263 261
278 273 270 267 266 266 267 267 268 268 269 270 272 273 274 276 278 282 285 286 286 286 286 286 284 283 282 281 279 278 277 276 275 274 273 271 270 268 267 265 264 262 261
275 271 267 265 266 265 266 266 266 267 269 270 271 273 273 275 278 282 285 286 286 286 285 285 284 283 281 280 279 278 277 276 274 273 272 271 269 268 266 265 263 262 261
274 271 266 264 263 263 264 266 268 270 272 273 273 273 275 278 282 284 285 286 286 287 286 285 284 283 282 281 280 279 277 276 275 273 272 270 269 267 266 265 263 262 260
275 274 268 264 263 263 265 265 268 271 273 273 274 278 283 285 287 287 287 288 289 289 288 288 286 285 283 282 281 279 278 276 275 273 272 270 269 267 266 265 264 263 261
278 275 273 270 266 265 268 269 270 272 274 276 279 284 286 290 292 291 291 291 291 290 289 288 287 286 285 283 282 281 279 277 276 275 273 271 270 269 267 266 265 264 263
280 276 273 273 270 270 271 271 273 275 280 286 288 290 293 292 293 295 295 294 293 292 291 290 289 288 287 285 284 282 280 279 277 275 274 272 271 270 269 267 266 264 263
281 278 273 274 278 278 276 274 279 284 289 292 295 296 296 296 296 296 297 296 295 293 292 291 290 289 288 286 285 284 282 280 278 276 274 272 271 270 268 267 265 263 262
293 282 278 280 282 281 280 282 287 292 295 298 298 298 298 299 300 300 298 297 295 294 293 292 291 290 288 287 285 284 282 280 278 276 274 273 272 270 269 267 266 264 262
304 294 286 286 284 283 285 291 293 296 299 299 298 298 297 297 297 298 298 298 297 295 294 293 292 291 289 288 286 284 282 279 277 275 274 273 273 271 270 268 267 265 263
310 303 296 289 286 287 290 293 295 296 297 297 297 297 297 296 296 296 296 296 296 295 295 294 292 291 289 288 286 284 282 280 278 276 275 274 273 272 271 270 268 267 265
312 306 303 300 294 292 292 293 294 295 295 295 296 296 296 295 296 296 296 296 296 295 294 293 292 291 290 288 287 285 284 282 280 279 277 276 275 274 272 271 269 268 266
308 304 302 299 294 293 293 293 293 294 294 294 295 295 295 295 296 296 297 296 296 296 295 294 293 292 291 289 288 287 286 284 283 281 280 278 276 275 273 272 270 268 266
304 299 298 296 293 293 292 291 292 293 293 293 294 294 295 296 297 297 297 297 297 297 296 295 294 293 292 291 290 289 288 287 285 283 281 279 277 276 274 272 270 268 265
300 298 297 296 294 292 291 291 292 292 292 293 294 295 296 297 298 298 298 298 298 298 297 296 295 294 293 292 292 291 290 289 287 285 282 280 278 276 274 272 270 268 265
298 297 296 295 293 292 291 291 291 292 293 293 294 296 297 298 298 298 299 299 298 298 298 298 297 296 295 294 293 293 291 290 288 286 283 280 277 275 272 271 270 268 267
297 296 295 294 293 292 292 291 292 292 293 294 295 296 297 298 299 299 300 299 300 300 301 300 300 299 298 297 296 295 293 291 289 287 285 282 279 277 274 274 273 271 270
296 295 295 294 293 292 291 291 292 293 294 295 296 297 298 299 300 300 301 301 302 303 303 303 303 301 300 300 299 298 296 294 291 289 287 285 282 280 278 277 276 274 273
294 294 293 292 291 291 291 291 292 293 295 296 297 298 299 300 301 302 303 304 305 306 306 306 305 304 304 303 303 301 298 296 294 292 290 287 284 283 282 281 280 278 276
292 292 291 290 290 290 291 292 293 295 296 297 298 299 300 302 303 305 306 307 307 308 308 308 308 307 307 306 305 304 301 299 296 294 292 289 286 284 282 282 282 281 279
290 290 290 290 290 291 292 293 295 296 297 298 300 302 303 304 306 307 308 308 309 310 311 311 311 310 308 307 306 304 302 300 296 294 292 290 287 284 282 281 281 283 282
290 290 290 290 291 292 293 294 296 297 298 300 301 303 305 307 308 309 309 310 311 313 314 314 313 312 310 308 307 306 304 302 300 297 295 293 290 286 283 281 279 280 280
290 290 291 291 292 293 294 295 296 298 299 301 303 304 306 307 308 309 309 310 312 314 315 316 316 316 314 313 311 311 309 308 307 305 302 298 294 290 286 283 281 278 276
290 291 291 292 293 294 295 296 297 299 300 302 304 305 306 307 308 308 309 310 312 314 316 318 319 320 320 320 319 319 318 317 317 315 313 310 305 301 294 288 282 277 274
291 292 292 293 294 295 295 297 298 300 301 302 303 304 305 306 307 307 309 312 315 318 320 323 325 328 329 330 329 329 328 328 329 328 325 321 317 311 304 297 289 281 275
Height
5874 5873 5872 5871 5871 5870 5870 5870 5869 5869 5868 5868 5867 5867 5866 5865 5864 5863 5862 5861 5860 5859 5858 5857 5856 5854 5853 5853 5852 5851 5850 5850 5849 5849 5848 5848 5848 5848 5848 5848 5848 5849 5849
5870 5869 5868 5867 5866 5866 5866 5866 5865 5865 5864 5863 5863 5862 5861 5860 5859 5857 5856 5855 5854 5853 5852 5850 5849 5848 5846 5845 5844 5843 5841 5840 5840 5839 5838 5838 5838 5838 5838 5838 5838 5839 5839
5865 5863 5863 5862 5861 5860 5860 5860 5859 5859 5858 5857 5857 5856 5855 5854 5853 5851 5849 5848 5847 5846 5844 5843 5841 5840 5838 5837 5835 5834 5832 5831 5830 5829 5828 5827 5826 5826 5826 5826 5826 5827 5827
5859 5857 5856 5855 5854 5853 5853 5852 5852 5851 5851 5850 5849 5849 5847 5846 5845 5844 5842 5840 5838 5837 5836 5834 5832 5831 5829 5827 5825 5824 5822 5821 5819 5818 5817 5815 5814 5814 5813 5813 5814 5814 5815
5851 5849 5848 5846 5845 5845 5844 5844 5844 5844 5843 5842 5841 5840 5840 5838 5837 5836 5834 5832 5830 5828 5826 5825 5823 5821 5819 5817 5815 5813 5811 5809 5807 5806 5804 5803 5802 5801 5800 5800 5800 5800 5800
5843 5841 5839 5837 5836 5836 5836 5836 5836 5836 5835 5834 5833 5833 5832 5831 5829 5828 5826 5824 5822 5819 5817 5815 5812 5810 5808 5806 5803 5801 5798 5796 5794 5792 5790 5789 5788 5787 5786 5785 5785 5785 5785
5835 5832 5830 5829 5827 5828 5828 5828 5828 5827 5827 5826 5826 5825 5824 5822 5820 5819 5817 5814 5812 5810 5807 5804 5800 5798 5795 5792 5790 5787 5784 5781 5779 5777 5775 5773 5771 5770 5769 5769 5768 5768 5769
5827 5825 5823 5822 5820 5820 5821 5820 5821 5820 5820 5819 5818 5817 5815 5814 5812 5809 5807 5804 5801 5798 5794 5791 5788 5784 5780 5776 5773 5771 5767 5764 5761 5759 5757 5755 5753 5752 5751 5750 5749 5750 5750
5821 5819 5817 5815 5814 5814 5814 5813 5813 5813 5813 5812 5810 5809 5806 5804 5802 5800 5796 5792 5788 5785 5781 5777 5773 5768 5764 5760 5755 5752 5750 5746 5743 5739 5737 5734 5733 5732 5731 5730 5730 5730 5731
5815 5813 5812 5810 5809 5808 5808 5807 5806 5805 5805 5803 5802 5799 5797 5793 5789 5785 5782 5779 5775 5770 5765 5760 5755 5750 5746 5741 5737 5733 5730 5726 5722 5719 5716 5714 5712 5711 5710 5710 5710 5710 5712
5810 5807 5806 5805 5804 5802 5801 5800 5799 5798 5796 5794 5792 5789 5786 5782 5777 5773 5768 5763 5758 5753 5748 5742 5736 5731 5726 5721 5716 5712 5710 5706 5702 5699 5696 5693 5692 5690 5689 5688 5688 5689 5691
5805 5803 5801 5799 5798 5796 5795 5793 5791 5789 5787 5784 5781 5777 5774 5769 5765 5760 5754 5749 5743 5737 5730 5723 5717 5711 5705 5699 5695 5691 5688 5684 5680 5677 5675 5672 5671 5669 5668 5667 5667 5667 5669
5800 5797 5795 5793 5791 5789 5787 5785 5782 5780 5776 5773 5769 5765 5760 5755 5750 5744 5739 5733 5727 5721 5713 5705 5698 5691 5684 5678 5673 5670 5666 5662 5659 5656 5653 5651 5649 5647 5646 5645 5645 5645 5646
5792 5790 5787 5785 5783 5781 5778 5775 5772 5768 5764 5760 5756 5751 5746 5741 5735 5729 5722 5716 5710 5704 5696 5687 5679 5672 5665 5658 5651 5648 5644 5641 5638 5634 5631 5628 5626 5624 5623 5622 5622 5622 5623
5784 5782 5779 5777 5774 5771 5767 5764 5760 5756 5752 5747 5742 5737 5731 5725 5719 5712 5705 5698 5692 5687 5681 5670 5662 5654 5647 5639 5632 5627 5622 5619 5615 5612 5608 5605 5603 5601 5600 5599 5598 5599 5600
5774 5772 5769 5766 5763 5759 5755 5751 5747 5743 5738 5733 5727 5722 5715 5709 5702 5695 5689 5681 5674 5668 5663 5655 5645 5637 5629 5621 5613 5607 5601 5597 5593 5590 5586 5583 5581 5580 5578 5577 5577 5577 5578
5764 5761 5758 5754 5750 5746 5742 5738 5734 5729 5724 5718 5712 5706 5700 5694 5686 5680 5673 5666 5658 5651 5645 5638 5627 5618 5610 5603 5596 5589 5583 5578 5574 5570 5567 5565 5563 5562 5560 5560 5560 5559 5560
5753 5749 5745 5741 5737 5733 5728 5724 5719 5714 5709 5703 5697 5691 5685 5679 5672 5665 5658 5650 5642 5634 5626 5620 5610 5601 5593 5585 5579 5573 5568 5563 5559 5556 5553 5551 5549 5548 5547 5547 5546 5545 5545
5740 5736 5732 5727 5723 5719 5714 5709 5705 5700 5694 5689 5683 5677 5671 5664 5658 5650 5643 5635 5627 5618 5609 5602 5594 5585 5578 5571 5566 5561 5556 5552 5549 5546 5544 5542 5540 5538 5537 5536 5535 5534 5533
5726 5722 5718 5713 5709 5704 5700 5695 5690 5685 5680 5675 5669 5663 5657 5651 5644 5636 5628 5620 5612 5603 5595 5587 5580 5574 5567 5562 5557 5553 5549 5545 5541 5538 5536 5534 5532 5530 5529 5527 5526 5524 5523
5713 5708 5704 5699 5694 5690 5685 5681 5676 5672 5667 5662 5656 5650 5644 5638 5630 5622 5614 5606 5599 5591 5584 5577 5571 5565 5560 5555 5550 5546 5542 5538 5535 5531 5529 5527 5524 5523 5521 5519 5517 5515 5514
5699 5694 5689 5684 5680 5676 5671 5667 5663 5658 5654 5649 5643 5637 5630 5624 5617 5610 5602 5595 5588 5582 5576 5570 5565 5559 5554 5549 5545 5540 5535 5532 5528 5525 5522 5519 5516 5514 5513 5511 5509 5507 5505
5684 5680 5675 5671 5667 5663 5658 5654 5650 5645 5641 5636 5630 5624 5618 5611 5605 5599 5592 5586 5580 5574 5569 5564 5559 5554 5549 5544 5539 5534 5529 5525 5521 5517 5514 5511 5508 5506 5504 5502 5501 5500 5498
5670 5666 5661 5657 5654 5650 5646 5642 5637 5633 5629 5624 5619 5613 5607 5601 5596 5590 5584 5579 5574 5569 5564 5559 5554 5549 5543 5538 5533 5528 5523 5519 5515 5511 5507 5504 5501 5499 5496 5494 5493 5492 5491
5657 5653 5648 5644 5641 5638 5634 5629 5625 5621 5616 5612 5608 5603 5598 5593 5589 5584 5579 5575 5570 5565 5560 5554 5549 5543 5538 5532 5527 5523 5519 5514 5510 5506 5503 5499 5496 5493 5490 5488 5486 5485 5484
5644 5640 5636 5632 5628 5625 5622 5617 5613 5609 5605 5602 5598 5594 5590 5587 5583 5579 5575 5571 5567 5562 5556 5551 5545 5539 5534 5529 5524 5520 5516 5512 5507 5504 5499 5496 5492 5488 5486 5483 5481 5479 5478